STARLINK-35976

Last updated on Fri Dec 19 2025 00:02:05 GMT+0000 (Coordinated Universal Time)

1 66534U 25265U 25352.66667824 .00026535 00000+0 64064-3 0 9999 2 66534 43.0002 19.4840 0001274 273.8349 175.9438 15.40682725 5946
UTC large
Height (km)
Speed (km/s)
/
Latitude / Longitude
Inclination (degrees)
Orbital Period (minutes)
Azimuth
Elevation
Range (km)
Doppler Factor

Next 0 passes for location: London (51.5072 / 0.1276)

Sorry there are no passes over London.